| time (UTC) | temp F | wind direction | speed MPH | gust MPH | rain 1hr in | rain 24hr in | rain mn in | humidity % | barometer mb |
| 20260506230056 | 57 | 245 | 0.0 | 1.0 | 0.00 | 0.16 | 0.16 | 98 | 1012.5 |
| 20260506224606 | 57 | 245 | 0.0 | 1.0 | 0.00 | 0.16 | 0.16 | 98 | 1012.5 |
| 20260506223053 | 58 | 246 | 0.0 | 1.0 | 0.00 | 0.16 | 0.16 | 98 | 1012.4 |
| 20260506221554 | 58 | 246 | 0.0 | 1.0 | 0.00 | 0.16 | 0.16 | 97 | 1012.3 |
| 20260506220051 | 58 | 246 | 0.0 | 1.0 | 0.00 | 0.16 | 0.16 | 97 | 1012.5 |
| 20260506214607 | 58 | 246 | 0.0 | 1.0 | 0.00 | 0.16 | 0.16 | 97 | 1012.3 |
| 20260506213050 | 58 | 246 | 0.0 | 1.0 | 0.01 | 0.16 | 0.16 | 97 | 1012.4 |
| 20260506211550 | 59 | 242 | 0.0 | 1.0 | 0.04 | 0.16 | 0.16 | 97 | 1012.5 |
| 20260506210051 | 58 | 243 | 0.0 | 1.0 | 0.05 | 0.16 | 0.16 | 97 | 1012.4 |
| 20260506204545 | 59 | 243 | 0.0 | 1.0 | 0.05 | 0.16 | 0.16 | 96 | 1012.7 |
| 20260506203049 | 59 | 244 | 0.0 | 2.0 | 0.04 | 0.15 | 0.15 | 96 | 1012.8 |
| 20260506201543 | 59 | 245 | 0.0 | 1.0 | 0.02 | 0.12 | 0.12 | 94 | 1012.9 |
| 20260506200043 | 59 | 246 | 0.0 | 1.0 | 0.01 | 0.11 | 0.11 | 94 | 1012.8 |
| 20260506194556 | 59 | 246 | 0.0 | 1.0 | 0.01 | 0.11 | 0.11 | 94 | 1013.0 |
| 20260506193038 | 59 | 246 | 0.0 | 1.0 | 0.02 | 0.11 | 0.11 | 94 | 1013.1 |
| 20260506191537 | 59 | 319 | 0.0 | 0.0 | 0.03 | 0.10 | 0.10 | 94 | 1013.2 |
| 20260506190019 | 59 | 305 | 0.0 | 1.0 | 0.04 | 0.10 | 0.10 | 93 | 1013.4 |
| 20260506184525 | 59 | 247 | 0.0 | 1.0 | 0.05 | 0.10 | 0.10 | 93 | 1013.5 |
| 20260506183018 | 59 | 246 | 0.0 | 2.0 | 0.05 | 0.09 | 0.09 | 93 | 1014.0 |
| 20260506181516 | 59 | 244 | 0.0 | 1.0 | 0.04 | 0.07 | 0.07 | 93 | 1013.9 |
| 20260506180023 | 60 | 245 | 0.0 | 1.0 | 0.04 | 0.06 | 0.06 | 93 | 1013.7 |
| 20260506174512 | 60 | 245 | 0.0 | 1.0 | 0.05 | 0.05 | 0.05 | 92 | 1013.9 |
| 20260506173010 | 60 | 243 | 0.0 | 1.0 | 0.04 | 0.04 | 0.04 | 90 | 1014.3 |
| 20260506171512 | 60 | 349 | 0.0 | 1.0 | 0.03 | 0.03 | 0.03 | 89 | 1014.8 |
| 20260506170007 | 62 | 310 | 0.0 | 1.0 | 0.02 | 0.02 | 0.02 | 86 | 1015.0 |
| 20260506164507 | 63 | 304 | 0.0 | 1.0 | 0.00 | 0.00 | 0.00 | 81 | 1014.9 |
| 20260506163008 | 65 | 276 | 0.0 | 1.0 | 0.00 | 0.00 | 0.00 | 78 | 1014.7 |
| 20260506161506 | 66 | 240 | 0.0 | 1.0 | 0.00 | 0.00 | 0.00 | 75 | 1014.7 |
| 20260506160003 | 66 | 140 | 0.0 | 1.0 | 0.00 | 0.00 | 0.00 | 74 | 1015.1 |
| 20260506154503 | 66 | 310 | 0.0 | 4.0 | 0.00 | 0.00 | 0.00 | 74 | 1015.4 |
| 20260506153002 | 66 | 290 | 0.0 | 2.0 | 0.00 | 0.00 | 0.00 | 73 | 1015.1 |
| 20260506151502 | 67 | 212 | 0.0 | 1.0 | 0.00 | 0.00 | 0.00 | 72 | 1015.1 |
| 20260506150002 | 67 | 280 | 0.0 | 1.0 | 0.00 | 0.00 | 0.00 | 72 | 1015.2 |
| 20260506144605 | 67 | 231 | 0.0 | 2.0 | 0.00 | 0.00 | 0.00 | 72 | 1015.2 |
| 20260506143100 | 67 | 246 | 0.0 | 1.0 | 0.00 | 0.00 | 0.00 | 73 | 1015.4 |
| 20260506141604 | 67 | 136 | 0.0 | 2.0 | 0.00 | 0.00 | 0.00 | 72 | 1015.5 |
| 20260506140112 | 66 | 289 | 0.0 | 1.0 | 0.00 | 0.00 | 0.00 | 75 | 1015.5 |
| 20260506134557 | 66 | 289 | 0.0 | 2.0 | 0.00 | 0.00 | 0.00 | 75 | 1015.2 |
| 20260506133059 | 65 | 237 | 0.0 | 2.0 | 0.00 | 0.00 | 0.00 | 77 | 1015.3 |
| 20260506131549 | 64 | 243 | 0.0 | 1.0 | 0.00 | 0.00 | 0.00 | 79 | 1015.5 |
| 20260506130046 | 63 | 223 | 0.0 | 1.0 | 0.00 | 0.00 | 0.00 | 80 | 1015.3 |
| 20260506124543 | 62 | 222 | 0.0 | 1.0 | 0.00 | 0.00 | 0.00 | 82 | 1015.7 |
| 20260506123043 | 62 | 215 | 0.0 | 1.0 | 0.00 | 0.00 | 0.00 | 82 | 1016.2 |
| 20260506121542 | 62 | 219 | 0.0 | 2.0 | 0.00 | 0.00 | 0.00 | 83 | 1015.9 |
| 20260506120045 | 60 | 206 | 0.0 | 1.0 | 0.00 | 0.00 | 0.00 | 85 | 1015.9 |
| 20260506114540 | 60 | 205 | 0.0 | 1.0 | 0.00 | 0.00 | 0.00 | 86 | 1015.9 |
| 20260506113047 | 59 | 258 | 0.0 | 2.0 | 0.00 | 0.00 | 0.00 | 86 | 1016.0 |
| 20260506111540 | 59 | 221 | 0.0 | 1.0 | 0.00 | 0.00 | 0.00 | 87 | 1016.1 |
| 20260506110039 | 58 | 195 | 0.0 | 0.0 | 0.00 | 0.00 | 0.00 | 89 | 1016.2 |
| 20260506104545 | 57 | 195 | 0.0 | 0.0 | 0.00 | 0.00 | 0.00 | 89 | 1016.1 |
| 20260506103041 | 57 | 195 | 0.0 | 0.0 | 0.00 | 0.00 | 0.00 | 89 | 1016.1 |
| 20260506101546 | 56 | 195 | 0.0 | 0.0 | 0.00 | 0.00 | 0.00 | 89 | 1016.0 |
| 20260506100036 | 56 | 195 | 0.0 | 0.0 | 0.00 | 0.00 | 0.00 | 89 | 1015.8 |
| 20260506094535 | 57 | 195 | 0.0 | 0.0 | 0.00 | 0.00 | 0.00 | 89 | 1015.8 |
| 20260506093033 | 57 | 164 | 0.0 | 0.0 | 0.00 | 0.00 | 0.00 | 89 | 1015.8 |
| 20260506091533 | 57 | 164 | 0.0 | 1.0 | 0.00 | 0.00 | 0.00 | 88 | 1015.9 |
| 20260506090030 | 57 | 162 | 0.0 | 0.0 | 0.00 | 0.00 | 0.00 | 87 | 1015.9 |
| 20260506084537 | 57 | 162 | 0.0 | 0.0 | 0.00 | 0.00 | 0.00 | 87 | 1015.9 |
| 20260506083031 | 58 | 144 | 0.0 | 1.0 | 0.00 | 0.00 | 0.00 | 86 | 1016.1 |
| 20260506081528 | 58 | 144 | 0.0 | 1.0 | 0.00 | 0.00 | 0.00 | 86 | 1015.9 |
| 20260506073023 | 58 | 118 | 0.0 | 1.0 | 0.00 | 0.00 | 0.00 | 84 | 1016.0 |
| 20260506071522 | 58 | 116 | 0.0 | 1.0 | 0.00 | 0.00 | 0.00 | 84 | 1016.1 |
| 20260506061517 | 59 | 283 | 0.0 | 1.0 | 0.00 | 0.00 | 0.00 | 82 | 1015.9 |
| 20260506044503 | 62 | 245 | 0.0 | 1.0 | 0.00 | 0.00 | 0.00 | 77 | 1016.3 |
| 20260506043003 | 62 | 238 | 0.0 | 1.0 | 0.00 | 0.00 | 0.00 | 76 | 1016.3 |
| 20260506041559 | 62 | 239 | 0.0 | 2.0 | 0.00 | 0.00 | 0.00 | 75 | 1016.2 |
| 20260506040056 | 62 | 237 | 0.0 | 1.0 | 0.00 | 0.00 | 0.00 | 74 | 1016.2 |
| 20260506034556 | 63 | 84 | 0.0 | 1.0 | 0.00 | 0.00 | 0.00 | 73 | 1016.2 |
| 20260506033055 | 63 | 226 | 0.0 | 1.0 | 0.00 | 0.00 | 0.00 | 71 | 1016.3 |
| 20260506031555 | 63 | 269 | 0.0 | 1.0 | 0.00 | 0.00 | 0.00 | 71 | 1016.1 |
| 20260506030058 | 63 | 148 | 0.0 | 2.0 | 0.00 | 0.00 | 0.00 | 71 | 1016.2 |
| 20260506024558 | 63 | 164 | 0.0 | 2.0 | 0.00 | 0.00 | 0.00 | 70 | 1016.2 |
| 20260506023059 | 63 | 313 | 0.0 | 2.0 | 0.00 | 0.00 | 0.00 | 71 | 1016.2 |
| 20260506021606 | 63 | 268 | 0.0 | 1.0 | 0.00 | 0.00 | 0.00 | 71 | 1016.2 |
| 20260506020052 | 63 | 268 | 0.0 | 1.0 | 0.00 | 0.00 | 0.00 | 70 | 1016.1 |
| 20260506014552 | 63 | 266 | 0.0 | 1.0 | 0.00 | 0.00 | 0.00 | 69 | 1016.1 |
| 20260506013051 | 63 | 260 | 0.0 | 1.0 | 0.00 | 0.00 | 0.00 | 68 | 1015.8 |
| 20260506011551 | 64 | 214 | 0.0 | 1.0 | 0.00 | 0.00 | 0.00 | 67 | 1015.7 |
| 20260506010105 | 64 | 211 | 0.0 | 1.0 | 0.00 | 0.00 | 0.00 | 66 | 1015.5 |
| 20260506004552 | 65 | 258 | 0.0 | 1.0 | 0.00 | 0.00 | 0.00 | 65 | 1015.4 |
| 20260506003050 | 65 | 267 | 0.0 | 2.0 | 0.00 | 0.00 | 0.00 | 64 | 1015.0 |
| 20260506001549 | 65 | 234 | 0.0 | 1.0 | 0.00 | 0.00 | 0.00 | 64 | 1014.7 |
| 20260506000048 | 66 | 356 | 0.0 | 2.0 | 0.00 | 0.00 | 0.00 | 63 | 1014.6 |
| 20260505234604 | 67 | 219 | 0.0 | 2.0 | 0.00 | 0.00 | 0.00 | 62 | 1014.4 |
| 20260505233045 | 67 | 3 | 0.0 | 2.0 | 0.00 | 0.00 | 0.00 | 62 | 1014.3 |
| 20260505231545 | 68 | 193 | 0.0 | 3.0 | 0.00 | 0.00 | 0.00 | 61 | 1014.2 |